Home   Weather   Greece   Rhodes   Past weeks
Flag for Greece

Past Weather in Rhodes, Rhodes, Greece — Yesterday and Last 2 Weeks

Currently: 41 °F. Passing clouds. (Weather station: Rhodes Airport, Greece). See more current weather

Past Weather in Rhodes — Graph

°F

Rhodes Temperature Yesterday

Maximum temperature yesterday: 46 °F (at 2:20 pm)
Minimum temperature yesterday: 41 °F (at 4:50 am)
Average temperature yesterday: 44 °F

High & Low Weather Summary for the Past Weeks

 TemperatureHumidityPressure
High61 °F (Jan 21, 10:50 am)100% (Jan 12, 12:50 pm)30.36 "Hg (Jan 12, 12:50 pm)
Low36 °F (Jan 24, 4:50 am)28% (Jan 16, 1:50 pm)29.74 "Hg (Jan 12, 6:20 am)
Average49 °F61%30.03 "Hg
* Reported Jan 12 6:20 am — Jan 27 6:50 am, Rhodes. Weather by CustomWeather, © 2022

Note: Actual official high and low records may vary slightly from our data, if they occured in-between our weather recording intervals... More about our weather records

Rhodes Weather History for the Previous 24 Hours

Scroll right to see more
 ConditionsComfort  
Time TempWeatherWind HumidityBarometerVisibility
6:50 am
Thu, Jan 27
41 °FPassing clouds.16 mph57%30.07 "HgN/A
6:20 am43 °FPassing clouds.20 mph57%30.07 "HgN/A
5:50 am43 °FPassing clouds.15 mph57%30.07 "HgN/A
5:20 am43 °FPassing clouds.15 mph57%30.07 "HgN/A
4:50 am43 °FPassing clouds.15 mph57%30.07 "HgN/A
4:20 am43 °FPassing clouds.16 mph57%30.07 "HgN/A
3:50 am43 °FPassing clouds.16 mph57%30.07 "HgN/A
3:20 am43 °FPassing clouds.16 mph57%30.07 "HgN/A
2:50 am43 °FPassing clouds.16 mph57%30.07 "HgN/A
2:20 am43 °FPassing clouds.15 mph57%30.07 "HgN/A
1:50 am43 °FPassing clouds.14 mph57%30.07 "HgN/A
1:20 am43 °FPassing clouds.14 mph53%30.07 "HgN/A
12:50 am43 °FPassing clouds.14 mph53%30.07 "HgN/A
12:20 am43 °FPassing clouds.14 mph53%30.07 "HgN/A
11:50 pm
Wed, Jan 26
43 °FPassing clouds.14 mph53%30.07 "HgN/A
11:20 pm43 °FPassing clouds.14 mph53%30.04 "HgN/A
10:50 pm43 °FPassing clouds.16 mph53%30.04 "HgN/A
10:20 pm45 °FPassing clouds.17 mph49%30.04 "HgN/A
9:50 pm45 °FPassing clouds.18 mph49%30.04 "HgN/A
9:20 pm45 °FPassing clouds.16 mph53%30.04 "HgN/A
8:50 pm45 °FPassing clouds.16 mph53%30.04 "HgN/A
7:50 pm45 °FPassing clouds.17 mph49%30.04 "HgN/A
7:20 pm45 °FPassing clouds.13 mph46%30.01 "HgN/A
6:50 pm45 °FPassing clouds.13 mph53%30.01 "HgN/A
6:20 pm45 °FPassing clouds.14 mph46%29.98 "HgN/A
5:50 pm45 °FPassing clouds.12 mph46%29.98 "HgN/A
5:20 pm46 °FScattered clouds.13 mph43%29.98 "HgN/A
4:50 pm46 °FScattered clouds.18 mph43%29.98 "HgN/A
4:20 pm46 °FScattered clouds.17 mph43%29.95 "HgN/A
3:50 pm46 °FScattered clouds.12 mph43%29.95 "HgN/A
3:20 pm46 °FScattered clouds.17 mph43%29.95 "HgN/A
2:50 pm46 °FScattered clouds.17 mph43%29.95 "HgN/A
2:20 pm46 °FScattered clouds.14 mph46%29.92 "HgN/A
1:50 pm45 °FScattered clouds.16 mph49%29.92 "HgN/A
1:20 pm45 °FScattered clouds.17 mph49%29.92 "HgN/A
12:50 pm45 °FScattered clouds.16 mph49%29.92 "HgN/A
12:20 pm45 °FScattered clouds.16 mph49%29.95 "HgN/A
11:50 am45 °FScattered clouds.15 mph49%29.95 "HgN/A
11:20 am45 °FScattered clouds.14 mph49%29.95 "HgN/A
10:50 am45 °FScattered clouds.13 mph49%29.95 "HgN/A
10:20 am43 °FScattered clouds.9 mph49%29.95 "HgN/A
9:50 am43 °FScattered clouds.13 mph49%29.95 "HgN/A
9:20 am43 °FPassing clouds.12 mph53%29.95 "HgN/A
8:50 am43 °FScattered clouds.14 mph53%29.95 "HgN/A
8:20 am41 °FScattered clouds.14 mph57%29.95 "HgN/A
Weather by CustomWeather, © 2022

See weather overview